Location: Colonia Mina de C?rbuni
(46.1667°N, 22.7167°E)
Time: 10:54:55
(UTC+00:00)

Vanguard 1 - Pass Details

Date: 22 April 2024
Orbit: 652 x 3825 km, 34.2° (Epoch: 25 May)

Event Time Altitude Azimuth Distance (km) Brightness Sun altitude
Exits shadow 01:10:22 19° 199° (SSW) 6,088 13.5 -21.1°
Maximum altitude 01:24:12 36° 152° (SSE) 4,553 13.2 -19.4°
Drops below altitude 10° 01:38:34 10° 94° (E) 5,237 14.4 -17.5°
Sets 01:42:19 0° 86° (E) 5,854 14.9 -17.0°
